#timestamp,LO_Frequency,Hit,StdDev 
1525687215.8,286047002.7,N
1525687235.6,286046999.9,N
1525687255.5,286047002.1,N
1525687275.3,286047001.4,N
1525687295.2,286047002.3,N
1525687315.9,286047002.2,N
1525687335.7,286047001.9,N
1525687355.6,286047001.3,N
1525687375.4,286047005.7,Y
1525687395.2,286047004.4,P
1525687415.1,286047002.0,N
1525687416.0,286047002.0,N
1525687435.8,286047001.1,N
1525687455.7,286047000.1,N
1525687475.5,286047001.2,N
1525687495.3,286047000.9,N
1525687515.2,286047001.1,N
1525687535.0,286046999.1,N
1525687535.9,286046999.1,N
1525687555.7,286046998.7,N
1525687575.6,286046998.9,N
1525687595.4,286047002.4,N
1525687615.3,286047000.4,N
1525687635.1,286047001.0,N
1525687655.8,286047000.4,N
1525687675.7,286047000.0,N
1525687695.5,286047000.8,N
1525687715.4,286047000.4,N
1525687735.2,286047001.4,N
1525687755.0,286047002.4,N
1525687755.9,286047002.4,N
1525687775.8,286047000.0,N
1525687795.6,286046999.8,N
1525687815.4,286047002.8,N
1525687835.3,286046999.7,N
1525687855.1,286047001.3,N
1525687875.9,286047004.3,Y
1525687895.7,286047001.5,P
1525687915.5,286047002.3,P
1525687935.4,286047002.0,P
1525687955.2,286047003.2,Y
1525687975.1,286047001.3,P
1525687976.0,286047001.3,P
1525687995.8,286047001.0,P
1525688015.6,286046998.5,Y
1525688035.5,286047001.0,P
1525688055.3,286046997.3,P
1525688075.1,286046999.1,N
1525688095.9,286046999.1,N
1525688115.7,286046998.6,N
1525688135.6,286046998.2,N
1525688155.4,286047000.1,N
1525688175.2,286046998.5,N
1525688195.1,286047000.0,N
1525688196.0,286047000.0,N
1525688215.8,286047000.5,N
1525688235.6,286047000.9,N
1525688255.5,286046998.9,N
1525688275.3,286047001.2,N
1525688295.2,286047000.9,N
1525688315.9,286047000.5,N
1525688335.7,286047000.6,N
1525688355.6,286047002.6,N
1525688375.4,286047001.4,N
1525688395.2,286047002.0,N
1525688415.1,286047004.0,Y
1525688416.0,286047004.0,P
1525688435.8,286046999.8,N
1525688455.7,286046998.6,N
1525688475.5,286046999.6,N
1525688495.3,286046998.4,N
1525688515.2,286047001.2,N
1525688535.0,286046998.5,N
1525688535.9,286046998.5,N
1525688555.8,286046998.6,N
1525688575.6,286046998.3,N
1525688595.4,286047000.8,N
1525688615.3,286046999.9,N
1525688635.1,286047000.4,N
1525688655.8,286046998.4,N
1525688675.7,286046998.2,N
1525688695.5,286046999.1,N
1525688715.4,286046998.4,N
1525688735.2,286047001.0,N
1525688755.0,286047000.5,N
1525688755.9,286047000.5,N
1525688775.8,286047001.0,N
1525688795.6,286047001.0,N
1525688815.5,286046998.2,N
1525688835.3,286047000.8,N
1525688855.1,286046998.6,N
1525688875.9,286046998.9,N
1525688895.7,286046996.9,N
1525688915.5,286046996.6,N
1525688935.4,286046997.9,N
1525688955.2,286046999.1,N
1525688975.1,286046999.0,N
1525688976.0,286046999.0,N
1525688995.8,286046996.7,N
1525689015.6,286046995.1,Y
1525689035.5,286046995.3,P
1525689055.3,286046996.6,N
1525689075.1,286046998.4,N
1525689095.9,286047000.2,N
1525689115.7,286047002.0,N
1525689135.6,286047004.4,N
1525689155.4,286047001.3,N
1525689175.2,286047004.0,N
1525689195.1,286047004.1,N
1525689196.0,286047004.1,N
1525689215.8,286047003.7,N
1525689235.6,286047003.6,N
1525689255.5,286047003.5,N
1525689275.3,286047003.9,N
1525689295.2,286047004.1,N
1525689315.9,286047002.8,N
1525689335.7,286047002.2,N
1525689355.6,286046998.7,N
1525689375.4,286046998.7,N
1525689395.2,286046997.0,N
1525689415.1,286046996.8,N
1525689416.0,286046996.8,N
1525689435.8,286046998.7,N
1525689455.7,286046999.5,N
1525689475.5,286046999.5,N
1525689495.3,286046997.3,N
1525689515.2,286046997.2,N
1525689535.0,286046997.9,N
1525689535.9,286046997.9,N
1525689555.8,286046996.9,N
1525689575.6,286046997.4,N
1525689595.4,286046998.4,N
1525689615.3,286047000.7,N
1525689635.1,286047002.5,N
1525689655.8,286047001.5,N
1525689675.7,286047000.2,N
1525689695.5,286047000.3,N
1525689715.4,286047000.7,N
1525689735.2,286047002.3,N
1525689755.0,286047001.6,N
1525689755.9,286047001.6,N
1525689775.8,286047002.7,N
1525689795.6,286047011.9,Y
1525689815.5,286047002.2,P
1525689835.3,286046999.8,N
1525689855.1,286047001.0,N
1525689875.9,286046998.9,N
1525689895.7,286046998.3,N
1525689915.6,286046999.0,N
1525689935.4,286046998.8,N
1525689955.2,286046998.8,N
1525689975.1,286046999.6,N
1525689976.0,286046999.6,N
1525689995.8,286046999.1,N
1525690015.6,286046999.4,N
1525690035.5,286047000.6,N
1525690055.3,286047000.3,N
1525690075.2,286047001.0,N
1525690095.9,286047000.3,N
1525690115.7,286046999.7,N
1525690135.6,286047002.3,N
1525690155.4,286047000.3,N
1525690175.2,286047000.8,N
1525690195.1,286047000.7,N
1525690196.0,286047000.7,N
1525690215.8,286046998.8,N
1525690235.7,286046998.8,N
1525690255.5,286047001.1,N
1525690275.3,286047000.0,N
1525690295.2,286047000.1,N
1525690315.0,286046999.8,N
1525690315.9,286046999.8,N
1525690335.8,286047000.2,N
1525690355.6,286046998.5,N
1525690375.4,286046999.0,N
1525690395.3,286046999.2,N
1525690415.1,286046999.3,N
1525690435.8,286046999.0,N
1525690455.7,286047000.6,N
1525690475.5,286047000.5,N
1525690495.4,286047001.2,N
1525690515.2,286046998.3,N
1525690535.0,286046998.2,N
1525690535.9,286046998.2,N
1525690555.8,286046998.2,N
1525690575.6,286046998.2,N
1525690595.4,286046998.3,N
1525690615.3,286047001.1,N
1525690635.1,286047000.8,N
1525690655.9,286046998.9,N
1525690675.7,286046998.3,N
1525690695.5,286046999.4,N
1525690715.4,286047001.1,N
1525690735.2,286046999.8,N
1525690755.0,286046999.8,N
1525690756.0,286046999.8,N
1525690775.8,286047000.5,N
1525690795.6,286046998.8,N
